Location: Florida Caverns State Park
(30.8073°N, 85.2161°W)
Time: 16:50:34
(UTC-04:00)

Envisat - Visible Passes

Search period start: 17 October 2019 00:00
Search period end: 27 October 2019 00:00
Orbit: 764 x 766 km, 98.1° (Epoch: 17 October)

Date Brightness Start Highest point End Pass type
(mag) Time Alt. Az. Time Alt. Az. Time Alt. Az.
17 Oct 4.0 20:19:11 10° S 20:24:05 49° W 20:28:59 10° NNW visible
18 Oct 3.0 19:42:19 10° SSE 19:47:20 67° ENE 19:52:23 10° N visible
19 Oct 5.2 20:45:29 10° SSW 20:49:40 26° W 20:53:51 10° NW visible
20 Oct 6.4 07:22:03 10° ENE 07:24:47 14° E 07:27:29 10° SE visible
20 Oct 3.4 20:07:47 10° S 20:12:48 65° W 20:17:51 10° NNW visible
21 Oct 3.2 19:31:14 10° SSE 19:36:07 51° ENE 19:41:01 10° N visible
21 Oct 6.1 21:12:53 10° WSW 21:15:20 13° W 21:17:47 10° WNW visible
22 Oct 4.7 20:33:48 10° SSW 20:38:21 34° W 20:42:56 10° NNW visible
23 Oct 6.8 07:12:22 10° E 07:13:25 11° E 07:14:28 10° ESE visible
23 Oct 3.0 19:56:28 10° SSE 20:01:32 85° WSW 20:06:38 10° NNW visible
24 Oct 3.5 19:20:14 10° SE 19:24:54 39° ENE 19:29:36 10° N visible
24 Oct 5.7 21:00:36 10° SW 21:03:59 18° W 21:07:23 10° NW visible
25 Oct 4.2 20:22:14 10° S 20:27:03 44° W 20:31:54 10° NNW visible
26 Oct 2.9 19:45:15 10° SSE 19:50:18 74° ENE 19:55:22 10° N visible
